Tracking 19903 objects as of 17-Oct-2019
HD Live streaming from Space Station
objects crossing your sky now

COSMOS 249 DEB

Track COSMOS 249 DEB now!
10-day predictions


NORAD ID: 14430
Int'l Code: 1968-091CV
Perigee: 764.5 km
Apogee: 1,833.3 km
Inclination: 62.2 °
Period: 111.4 minutes
Semi major axis: 7669 km
RCS: 0.0133 m2 (small)
Launch date: October 20, 1968
Source: Commonwealth of Independent States (former USSR) (CIS)
Launch site: TYURATAM MISSILE AND SPACE COMPLEX (TTMTR)

Note: This is SATELLITE DEBRIS
aabbcc
Your satellite tracking list
Your tracking list is empty




NASA's NSSDC Master Catalog

Two Line Element Set (TLE):
1 14430U 68091CV  19289.11463641  .00000228  00000-0  38355-3 0  9990
2 14430  62.2475 167.8537 0696773 359.0796 150.1607 12.92457430785977
Source of the keplerian elements: AFSPC